Location: Tamazert
(32.6352°N, 5.2072°W)
Time: 02:57:31
(UTC+00:00)

Vanguard 2 Rocket - Pass Details

Date: 03 October 2022
Orbit: 555 x 3321 km, 32.9° (Epoch: 05 December)

Event Time Altitude Azimuth Distance (km) Brightness Sun altitude
Rises 01:56:34 0° 274° (W) 5,616 - -52.0°
Reaches altitude 10° 02:00:59 10° 274° (W) 4,151 - -51.3°
Maximum altitude 02:11:03 90° 311° (NW) 1,132 - -49.7°
Drops below altitude 10° 02:16:42 10° 96° (E) 2,404 - -48.7°
Sets 02:18:39 0° 97° (E) 3,148 - -48.4°
